[[{"header":{"parameterUnit":"m.s-1","parameterCategory":1,"la1":30.2991,"la2":30.254,"lo1":-89.0895,"lo2":-89.0444,"dy":0.0017,"dx":0.0017,"nx":28,"ny":28,"refTime":"2024-04-21T21:00:00:Z","depth":0,"parameterNumber":2,"parameterNumberName":"U-component_of_WINDS"},"data":[0,0,0,0,0,0,0,0,0,0,0,0,0,0,0,0,0,0,0,0,0,0,0,0,0,0,0,0,0,0,0,0,0,0,0,0,0,0,0,0,0,0,0,0,0,0,0,0,0,0,0,0,0,0,0,0,0,0,0.6385,0.6386,0,0.6402,0.6403,0.6403,0.6419,0.6419,0.6419,0.6419,0.6436,0.6436,0.6436,0,0,0,0,0,0,0,0,0,0,0,0,0,0.6368,0.6368,0.6385,0.6386,0.6386,0.6402,0.6403,0.6403,0.6419,0.6419,0.6419,0.6419,0.6436,0.6436,0.6436,0,0,0,0,0,0,0,0,0,0,0,0,0,0.6379,0.6368,0.6385,0.6396,0.6397,0.6402,0.6403,0.6403,0.6419,0.6419,0.6419,0.642,0.6436,0.6436,0.6436,0.6432,0,0,0.6437,0.6438,0,0,0,0,0,0,0,0,0.6378,0.638,0.6394,0.6395,0.6396,0.6409,0.6402,0.6413,0.6419,0.641,0.6419,0.642,0.6426,0.6428,0.643,0.6433,0.6434,0.6437,0.6438,0.6438,0.6438,0,0,0,0,0,0,0,0.6378,0.6379,0.6392,0.6394,0.6396,0.64,0.6402,0.6404,0.6416,0.6411,0.6412,0.6414,0.6427,0.643,0.6431,0.6434,0.6437,0.6438,0.6438,0.6438,0.6437,0.6436,0,0,0,0,0,0,0.6375,0.6378,0.6392,0.6393,0.6388,0.64,0.6402,0.6404,0.6416,0.6419,0.6414,0.6415,0.6429,0.643,0.6431,0.6428,0.6438,0.6438,0.6438,0.6437,0.6437,0.6436,0,0,0,0,0,0,0.6375,0.6376,0.6391,0.6386,0.6388,0.64,0.6402,0.6405,0.6407,0.6419,0.6421,0.6414,0.6429,0.6431,0.6432,0.6429,0.6438,0.6439,0.6437,0.6437,0.6436,0.6422,0,0,0,0,0,0,0.6374,0.6376,0.6374,0.6386,0.6388,0.6391,0.6402,0.6405,0.6408,0.6409,0.6419,0.6421,0.6429,0.6432,0.6433,0.643,0.6439,0.6437,0.6437,0.6436,0.6422,0.6421,0.6419,0,0,0,0,0,0.6373,0.6369,0.6374,0.6376,0.6386,0.6391,0.6393,0.6402,0.6407,0.6406,0.6414,0.6421,0.6429,0.6432,0.6433,0.643,0.6438,0.6437,0.6437,0.6423,0.6421,0.6419,0,0,0,0,0,0,0.6356,0.6371,0.6376,0.6375,0.6382,0.6394,0.6392,0.64,0.6405,0.6406,0.6417,0.642,0.642,0.6425,0.6428,0.6428,0.6435,0.6434,0.6424,0.6422,0.6421,0.6419,0.6439,0,0,0,0,0,0.6352,0.6355,0.6368,0.6366,0.6369,0.638,0.6382,0.639,0.6397,0.64,0.6407,0.6414,0.6418,0.6421,0.6425,0.6424,0.6427,0.6423,0.6421,0.642,0.6419,0.642,0.6418,0.6434,0.6434,0.6434,0,0,0.6344,0.6352,0.6353,0.6362,0.6368,0.6371,0.6382,0.6384,0.6387,0.64,0.6402,0.6408,0.6417,0.6417,0.6418,0.6421,0.6415,0.6419,0.6418,0.6418,0.6419,0.6418,0.6416,0.6434,0.6434,0.6434,0,0,0.6331,0.6337,0.6337,0.6343,0.6352,0.636,0.636,0.6371,0.6376,0.6379,0.6389,0.6392,0.6399,0.6405,0.6409,0.64,0.6407,0.6401,0.6393,0.6394,0.6392,0.6391,0.6389,0.6387,0.6401,0.6401,0.6401,0,0.6319,0.6324,0.6335,0.6337,0.6341,0.6355,0.6354,0.636,0.637,0.6373,0.6377,0.6387,0.6393,0.6396,0.6394,0.6397,0.6398,0.64,0.6392,0.6391,0.639,0.6387,0.6386,0.64,0.64,0.64,0.64,0,0.6309,0.6313,0.6311,0.6322,0.6326,0.6327,0.6339,0.6342,0.6349,0.6357,0.636,0.6369,0.6376,0.6377,0.6384,0.6381,0.6383,0.6389,0.6396,0.6387,0.6385,0.6384,0.6399,0.6399,0.6399,0.64,0,0,0.6284,0.6302,0.6301,0.6307,0.6319,0.6322,0.6324,0.6332,0.6334,0.6341,0.6344,0.635,0.6357,0.6361,0.6369,0.637,0.6363,0.6376,0.6376,0.6373,0.6362,0.6357,0.6355,0.6368,0.6368,0.6368,0.6361,0,0.6272,0.6277,0.6288,0.6289,0.6293,0.6307,0.6309,0.6317,0.6325,0.6329,0.6338,0.6342,0.635,0.6353,0.6355,0.6363,0.6361,0.6364,0.6371,0.6371,0.6368,0.6354,0.6348,0.6341,0.636,0.636,0.636,0,0.6259,0.6266,0.6268,0.6281,0.6283,0.6285,0.6294,0.6298,0.6308,0.6313,0.632,0.6329,0.6333,0.634,0.6346,0.6348,0.6351,0.6356,0.6356,0.6357,0.6364,0.6354,0.6339,0.6338,0.6359,0.6359,0.6359,0,0.624,0.625,0.6253,0.6257,0.6273,0.6274,0.6281,0.6291,0.6295,0.6303,0.6306,0.6314,0.6319,0.6325,0.6336,0.634,0.6341,0.6349,0.6346,0.6346,0.6345,0.6345,0.633,0.6348,0.6348,0.6348,0.6348,0,0.6226,0.6226,0.6245,0.6246,0.6248,0.6262,0.6263,0.6271,0.6281,0.6284,0.6297,0.63,0.6315,0.6321,0.633,0.6334,0.6335,0.634,0.6343,0.6339,0.6338,0.6341,0.6342,0.6348,0.6348,0.6348,0.6348,0,0.6204,0.6217,0.6221,0.6236,0.624,0.6241,0.6254,0.6256,0.6266,0.6271,0.6273,0.6287,0.6294,0.6307,0.6317,0.6323,0.6326,0.633,0.6322,0.6323,0.632,0.632,0.6306,0.6305,0.6324,0.6323,0.6323,0,0.6194,0.6195,0.6211,0.6215,0.6221,0.6227,0.6232,0.6246,0.6251,0.6263,0.6264,0.6273,0.628,0.6291,0.6302,0.6311,0.6315,0.631,0.6317,0.6313,0.6315,0.6315,0.6316,0.6308,0.6308,0.6308,0.6307,0,0.6174,0.6181,0.6188,0.6197,0.6203,0.6211,0.622,0.6222,0.6238,0.6243,0.6251,0.6257,0.6268,0.6277,0.6287,0.6295,0.6304,0.6306,0.6305,0.6301,0.6297,0.63,0.6318,0.6305,0.6306,0.6306,0.6306,0.6306,0.6158,0.616,0.6172,0.618,0.6188,0.6196,0.62,0.621,0.6217,0.6228,0.6236,0.6244,0.6255,0.6271,0.6278,0.6284,0.6288,0.6288,0.6288,0.6287,0.6286,0.6297,0.6286,0.6286,0.6286,0.6286,0.6286,0,0.614,0.6149,0.6155,0.6168,0.6174,0.6183,0.6194,0.6198,0.6205,0.6215,0.6223,0.6232,0.6241,0.6254,0.6264,0.6267,0.6271,0.6269,0.6269,0.627,0.6282,0.6281,0.6265,0.6265,0.6265,0.6265,0.6265,0.6265,0.613,0.6135,0.6143,0.6152,0.6161,0.6169,0.6174,0.6182,0.6191,0.6201,0.6209,0.6218,0.6229,0.6241,0.6249,0.6253,0.6256,0.6252,0.6257,0.6267,0.6269,0.6271,0.6271,0.6253,0.6253,0.6246,0.6245,0.6245]},{"header":{"parameterUnit":"m.s-1","parameterCategory":1,"la1":30.2991,"la2":30.254,"lo1":-89.0895,"lo2":-89.0444,"dy":0.0017,"dx":0.0017,"nx":28,"ny":28,"refTime":"2024-04-21T21:00:00:Z","depth":0,"parameterNumber":3,"parameterNumberName":"V-component_of_WINDS"},"data":[0,0,0,0,0,0,0,0,0,0,0,0,0,0,0,0,0,0,0,0,0,0,0,0,0,0,0,0,0,0,0,0,0,0,0,0,0,0,0,0,0,0,0,0,0,0,0,0,0,0,0,0,0,0,0,0,0,0,-7.5966,-7.5967,0,-7.6087,-7.6088,-7.609,-7.6018,-7.6014,-7.6011,-7.6007,-7.6124,-7.613,-7.6137,0,0,0,0,0,0,0,0,0,0,0,0,0,-7.5668,-7.5673,-7.5966,-7.5968,-7.5969,-7.6087,-7.6088,-7.609,-7.6018,-7.6014,-7.601,-7.6006,-7.6122,-7.613,-7.6137,0,0,0,0,0,0,0,0,0,0,0,0,0,-7.5794,-7.5675,-7.5966,-7.5948,-7.5947,-7.6086,-7.6088,-7.609,-7.6019,-7.6014,-7.6009,-7.6004,-7.612,-7.6129,-7.6138,-7.63,0,0,-7.6167,-7.6171,0,0,0,0,0,0,0,0,-7.5786,-7.5805,-7.5949,-7.5949,-7.5949,-7.6032,-7.6026,-7.616,-7.602,-7.5992,-7.6007,-7.6001,-7.6097,-7.6108,-7.6142,-7.6305,-7.631,-7.6168,-7.6174,-7.6178,-7.6181,0,0,0,0,0,0,0,-7.5778,-7.5799,-7.6014,-7.5951,-7.5951,-7.5932,-7.5944,-7.6051,-7.6072,-7.5994,-7.5989,-7.6004,-7.6096,-7.6133,-7.6144,-7.6312,-7.6168,-7.6176,-7.6182,-7.6186,-7.6615,-7.662,0,0,0,0,0,0,-7.5771,-7.5792,-7.601,-7.6017,-7.5854,-7.5941,-7.5955,-7.601,-7.607,-7.6075,-7.6009,-7.6001,-7.6119,-7.6133,-7.6148,-7.6342,-7.6178,-7.6187,-7.6192,-7.6609,-7.6616,-7.6622,0,0,0,0,0,0,-7.5765,-7.5791,-7.6005,-7.5904,-7.5929,-7.5952,-7.6015,-7.6016,-7.6052,-7.6082,-7.6084,-7.6043,-7.6116,-7.6135,-7.6263,-7.6345,-7.6191,-7.62,-7.6602,-7.6611,-7.6619,-7.673,0,0,0,0,0,0,-7.5757,-7.579,-7.5853,-7.5906,-7.5935,-7.612,-7.602,-7.6022,-7.607,-7.606,-7.6115,-7.6119,-7.6113,-7.625,-7.6273,-7.6355,-7.6207,-7.6595,-7.6606,-7.6616,-7.6719,-7.6741,-7.676,0,0,0,0,0,-7.5747,-7.5877,-7.5856,-7.5883,-7.6015,-7.6125,-7.6142,-7.6135,-7.6077,-7.6139,-7.6158,-7.6117,-7.6332,-7.6263,-7.6289,-7.6375,-7.659,-7.6603,-7.6615,-7.671,-7.6737,-7.676,0,0,0,0,0,0,-7.5831,-7.5884,-7.5861,-7.6013,-7.6066,-7.6113,-7.6191,-7.6164,-7.6232,-7.622,-7.6206,-7.6219,-7.6354,-7.6377,-7.6299,-7.6535,-7.6452,-7.647,-7.6515,-7.6541,-7.6561,-7.6552,-7.6215,0,0,0,0,0,-7.5868,-7.5955,-7.5996,-7.6126,-7.6154,-7.6169,-7.6216,-7.6207,-7.626,-7.6281,-7.6309,-7.636,-7.6439,-7.6491,-7.6565,-7.6723,-7.6733,-7.6794,-7.6815,-7.6832,-7.6848,-7.6933,-7.696,-7.6664,-7.6664,-7.6664,0,0,-7.5943,-7.5983,-7.6039,-7.6144,-7.6184,-7.6273,-7.6188,-7.6285,-7.6351,-7.6295,-7.6419,-7.6442,-7.6497,-7.6641,-7.6706,-7.6665,-7.6932,-7.6848,-7.6861,-7.6868,-7.6949,-7.6977,-7.7002,-7.6673,-7.6671,-7.667,0,0,-7.6127,-7.6167,-7.628,-7.6322,-7.6384,-7.6393,-7.6421,-7.6473,-7.6487,-7.6612,-7.6572,-7.6648,-7.6785,-7.6826,-7.6865,-7.7067,-7.7032,-7.7092,-7.7199,-7.7282,-7.7305,-7.7326,-7.7398,-7.7424,-7.7108,-7.7108,-7.7108,0,-7.6213,-7.6348,-7.6341,-7.6443,-7.6491,-7.6447,-7.6561,-7.6601,-7.6683,-7.6716,-7.6669,-7.6841,-7.6875,-7.7028,-7.7078,-7.7111,-7.7141,-7.7085,-7.7303,-7.7323,-7.7343,-7.7411,-7.7438,-7.7115,-7.7114,-7.7113,-7.7113,0,-7.6451,-7.6545,-7.6629,-7.6713,-7.6769,-7.6876,-7.6884,-7.6942,-7.6928,-7.6942,-7.7069,-7.7109,-7.7192,-7.7227,-7.7213,-7.7379,-7.7352,-7.7305,-7.722,-7.7378,-7.7442,-7.7468,-7.7125,-7.7122,-7.712,-7.7118,0,0,-7.6689,-7.677,-7.6801,-7.6839,-7.6904,-7.6976,-7.7081,-7.7164,-7.7214,-7.7272,-7.7359,-7.7477,-7.7434,-7.7478,-7.7469,-7.7542,-7.77,-7.7486,-7.7487,-7.7524,-7.7884,-7.7919,-7.795,-7.7677,-7.7682,-7.7686,-7.788,0,-7.6878,-7.7064,-7.7062,-7.7234,-7.732,-7.7281,-7.7372,-7.7421,-7.7437,-7.7512,-7.7528,-7.7612,-7.7549,-7.7576,-7.7646,-7.7666,-7.7772,-7.7651,-7.7756,-7.776,-7.7743,-7.7983,-7.8021,-7.8202,-7.7905,-7.7909,-7.7912,0,-7.7122,-7.7192,-7.7373,-7.7428,-7.7464,-7.7546,-7.7623,-7.7695,-7.7749,-7.7756,-7.7807,-7.7786,-7.7891,-7.7805,-7.7949,-7.7868,-7.791,-7.7926,-7.7933,-7.7942,-7.7845,-7.7998,-7.8259,-7.8286,-7.7951,-7.7948,-7.7945,0,-7.7278,-7.7417,-7.7544,-7.7577,-7.7644,-7.7703,-7.7733,-7.7783,-7.7833,-7.7899,-7.7932,-7.8008,-7.805,-7.8109,-7.8109,-7.8046,-7.8254,-7.8168,-7.8261,-7.8262,-7.8306,-7.8303,-7.8577,-7.8335,-7.8334,-7.8334,-7.8333,0,-7.7489,-7.7601,-7.7615,-7.7693,-7.7818,-7.7814,-7.7936,-7.796,-7.8006,-7.8086,-7.8055,-7.8131,-7.8127,-7.8203,-7.8204,-7.8323,-7.8342,-7.8349,-7.8347,-7.8352,-7.8351,-7.8379,-7.8366,-7.8341,-7.8339,-7.8338,-7.8337,0,-7.7684,-7.7698,-7.7834,-7.7887,-7.7903,-7.7992,-7.8036,-7.811,-7.8124,-7.8226,-7.825,-7.827,-7.8359,-7.8365,-7.8467,-7.8467,-7.8612,-7.8596,-7.8594,-7.8591,-7.8684,-7.8675,-7.8985,-7.9026,-7.8757,-7.876,-7.8762,0,-7.7817,-7.7903,-7.7966,-7.802,-7.8054,-7.814,-7.8192,-7.8191,-7.8246,-7.8316,-7.8381,-7.8467,-7.8536,-7.8678,-7.8701,-7.8779,-7.8765,-7.8868,-7.8776,-7.8778,-7.8766,-7.8761,-7.877,-7.8886,-7.8889,-7.8891,-7.8893,0,-7.8052,-7.8055,-7.8133,-7.8214,-7.8278,-7.8341,-7.84,-7.8444,-7.845,-7.8513,-7.8605,-7.8659,-7.8764,-7.885,-7.8926,-7.8954,-7.8925,-7.8923,-7.8948,-7.8953,-7.8948,-7.8952,-7.8643,-7.8915,-7.8913,-7.8911,-7.891,-7.8909,-7.822,-7.8295,-7.8352,-7.844,-7.8485,-7.8541,-7.8613,-7.8637,-7.8714,-7.8802,-7.8796,-7.8897,-7.8949,-7.9049,-7.9084,-7.9162,-7.9126,-7.9163,-7.9173,-7.9182,-7.9192,-7.8937,-7.9175,-7.9175,-7.9174,-7.9174,-7.9173,0,-7.8453,-7.8489,-7.857,-7.8655,-7.8724,-7.8693,-7.8757,-7.8816,-7.8906,-7.8959,-7.9028,-7.9134,-7.9217,-7.9247,-7.9328,-7.9385,-7.9373,-7.9406,-7.9401,-7.9408,-7.9219,-7.9189,-7.9414,-7.9414,-7.9414,-7.9414,-7.9414,-7.9414,-7.8583,-7.8709,-7.8719,-7.8866,-7.89,-7.9002,-7.9041,-7.9092,-7.9134,-7.9254,-7.9324,-7.9345,-7.9388,-7.9472,-7.9547,-7.9553,-7.9584,-7.9622,-7.9623,-7.9446,-7.9421,-7.9398,-7.937,-7.9629,-7.963,-7.9806,-7.9808,-7.9809]}]]